Regional Weather Roundup
Issued by NWS Wakefield, VA

Home | Current Version | Previous Version | Graphics & Text | Print | Product List | Glossary On
Versions: 1 2 3 4 5 6 7 8 9 10 11 12 13 14 15 16 17 18 19 20 21 22 23 24 25 26 27 28 29 30 31 32 33 34 35 36 37 38 39 40 41 42 43 44 45 46 47 48 49 50
000
ASUS41 KAKQ 292110
RWRAKQ

REGIONAL WEATHER ROUNDUP
NATIONAL WEATHER SERVICE WAKEFIELD VA
400 PM EST THU JAN 29 2015

Note: "fair" indicates few or no clouds below 12,000 feet with no
significant weather and/or obstructions to visibility. * = Denotes
station may not report precipitation (e.g., rain,snow,etc.),
thunder or fog.

VAZ042-051-052>054-056-292200-
NORTHERN VIRGINIA

CITY           SKY/WX    TMP DP  RH WIND       PRES   REMARKS
WASH NATIONAL  LGT RAIN  38  15  39 SE12      30.12F
DULLES         LGTSLEET  34  16  47 S8        30.08F
FORT BELVOIR   LGT RAIN  35  18  49 SE6       30.11F
QUANTICO       CLOUDY    37  22  54 S12       30.11F
FREDERICKSBRG* DRIZZLE   40  17  39 SE8       30.09F
STAFFORD*      DRIZZLE   38  12  34 CALM      30.13F
WARRENTON      RAIN      37  27  66 S5        30.08S
CULPEPER*      RAIN      37  25  60 CALM      30.08F
MANASSAS*      CLOUDY    36  18  48 SE7       30.09F
LEESBURG*      MIX PCPN  34  23  64 S7        30.08F
WINCHESTER     MIX PCPN  34  23  64 SE12      30.00F
FRONT ROYAL*   CLOUDY    32  28  86 S3        30.00F
LURAY*         CLOUDY    37  28  70 SW10      29.99F
$$

VAZ048-049-060>072-079>083-292200-
CENTRAL AND SOUTH CENTRAL VIRGINIA

CITY           SKY/WX    TMP DP  RH WIND       PRES   REMARKS
RICHMOND       CLOUDY    42  14  32 S12       30.12F
CHESTERFIELD*  CLOUDY    43  12  28 S8        30.13F
PETERSBURG*    CLOUDY    45  11  25 S9        30.13F
HANOVER        CLOUDY    41  14  33 S9        30.13F
TAPPAHANNOCK*  CLOUDY    40   8  26 S6        30.14F
QUINTON*       MOCLDY    40  13  32 S6        30.13F
CHARLOTTSVILLE CLOUDY    38  23  55 SW10      30.05F
GORDONSVILLE*  CLOUDY    37  26  65 S6        30.07S
ORANGE*        DRIZZLE   37  27  65 SE3       30.09S
LOUISA*        DRIZZLE   39  19  45 S5        30.06F
BUMPASS*       CLOUDY    39  16  38 SE6       30.08F
FARMVILLE*     LGT RAIN  41  29  60 SW5       30.08F
CREWE*         CLOUDY    43  15  32 S10       30.10F
FORT PICKETT*  CLOUDY    42  15  33 S8        30.12S
CHASE CITY*    CLOUDY    44  26  49 S8        30.11F
CLARKSVILLE*   CLOUDY    37  28  70 S6        30.12F
SOUTH HILL*    CLOUDY    42  16  34 S10       30.19F
LAWRENCEVILLE* MOCLDY    43  15  32 S8        30.14F
EMPORIA*       PTSUNNY   41  16  36 SE6       30.18F
$$

VAZ088>098-292200-
SOUTHEAST VIRGINIA

CITY           SKY/WX    TMP DP  RH WIND       PRES   REMARKS
NORFOLK        CLOUDY    41  14  33 SW12      30.20S
VIRGINIA BEACH CLOUDY    42  18  37 SW10      30.20S
NORFOLK NAVAL  CLOUDY    44  16  32 VRB3      30.19F
WEST POINT*    CLOUDY    42  15  33 SE8       30.16F
SALUDA*        FAIR      38  22  52 S8        30.16F
NEWPORT NEWS   CLOUDY    43  20  39 S8        30.18F
LANGLEY AFB    CLOUDY    40  19  43 S7        30.18F
FORT EUSTIS    CLOUDY    42  25  51 S7        30.16F
WILLIAMSBURG*    N/A     43  25  49 SE10      30.16F
HR EXEC AP*    FAIR      41  18  38 S7        30.20F
FRANKLIN*      PTSUNNY   43  14  31 S8        30.19F
WAKEFIELD      CLOUDY    44  15  31 S8        30.17F
$$

VAZ020-022-025-037-045-292200-
WEST CENTRAL AND SOUTHWEST VIRGINIA

CITY           SKY/WX    TMP DP  RH WIND       PRES   REMARKS
STAUNTON*      CLOUDY    38  24  57 S8        30.01F
WAYNESBORO*    CLOUDY    37  25  63 S9G17     29.99F
HOT SPRINGS VA CLOUDY    31  25  79 S12G17    29.88F WCI  22
LYNCHBURG      CLOUDY    39  28  64 S8        30.07S
DANVILLE       CLOUDY    44  25  47 S7        30.10F
SOUTH BOSTON*  CLOUDY    40  23  49 S6        30.12F
MARTINSVILLE   MOSUNNY   48  22  36 SW12G18   30.09F
ROANOKE        MOSUNNY   44  26  49 CALM      30.04F
BLACKSBURG     PTSUNNY   39  25  56 S8        30.02S
DUBLIN*        CLOUDY    43  29  56 S10       30.00F
MARION*        CLOUDY    44  32  62 CALM      29.99S
HILLSVILLE*    CLOUDY    39  26  58 S10G18    29.99S
RICHLANDS*     FAIR      46  26  45 SW14G33   29.94S
WISE*          SUNNY     46  30  53 SW16G25   29.95R
ABINGDON*      MOSUNNY   50  30  46 W12G20    29.97S
$$

MDZ021>025-VAZ099-100-292200-
SOUTHERN MARYLAND AND THE DELMARVA PENINSULA

CITY           SKY/WX    TMP DP  RH WIND       PRES   REMARKS
PATUXENT RIVER CLOUDY    36  22  56 SE9       30.14F
BAY BRIDGE APT   N/A     34  14  44 S9        30.14F
LEONARDTOWN    CLOUDY    36  19  51 SE5       30.15F
DOVER          CLOUDY    34  23  65 SE7       30.16F
GEORGETOWN     CLOUDY    37  13  37 S7        30.16F
EASTON         PTSUNNY   37  12  35 S12       30.18F
CAMBRIDGE      CLOUDY    36  21  55 S6        30.15F
SALISBURY      CLOUDY    39  13  34 S8        30.16F
OCEAN CITY     CLOUDY    34  22  61 MISG      30.19F
WALLOPS ISLAND CLOUDY    35  21  56 S10       30.19F
ACCOMACK*      CLOUDY    36  18  48 S6        30.18F
$$

NCZ012>017-030>032-292200-
NORTH CENTRAL AND EASTERN NORTH CAROLINA

CITY           SKY/WX    TMP DP  RH WIND       PRES   REMARKS
ROANOKE RAPIDS FAIR      43  19  39 S6        30.19S
RALEIGH        LGTSLEET  46  16  29 SW10      30.16F
ELIZABETH CITY CLOUDY    40  12  32 SW6       30.22F
AHOSKIE*       PTSUNNY   42  14  32 S5        30.21S
EDENTON*       CLOUDY    42  22  44 S5        30.22F
CURRITUCK*     CLOUDY    40  15  36 S3        30.22F
KILL DEVIL HLS CLOUDY    38  22  51 CALM      30.21F
MANTEO         CLOUDY    39  23  52 S6        30.23F
CAPE HATTERAS  CLOUDY    39  24  55 NW6       30.24F
TARBORO*       FAIR      46  17  31 S5        30.21F
GOLDSBORO      MOSUNNY   49  18  29 S5        30.19F
WASHINGTON     CLOUDY    46  15  29 SW5       30.21F
GREENVILLE     PTSUNNY   46  16  29 SW8       30.21F
NEW BERN       CLOUDY    49  18  29 SE3       30.23F
WILMINGTON     PTSUNNY   48  26  42 S9        30.23F
$$

VAZ048-292200-
ELSEWHERE

CITY           SKY/WX    TMP DP  RH WIND       PRES   REMARKS
HARRISBURG PA  CLOUDY    31  13  47 S6        30.08R
BALTIMORE      CLOUDY    33  17  51 SE6       30.11F
ANNAPOLIS      CLOUDY    34  20  56 S14       30.12F WCI  25
ANDREWS AFB    LGT RAIN  36  16  44 SE12      30.10F
PHILADELPHIA   CLOUDY    34  11  38 S7        30.15F
HENDERSON NC   LGT RAIN  42  15  34 S5        30.14F
GREENSBORO     PTSUNNY   47  29  49 S12       30.09F
ROCKY MOUNT    MOSUNNY   47  16  29 S9        30.19F
$$

VAZ100-292200-
MARINE

STATION/POSITION TIME  TEMP    WIND        PRES    WAVE   SWELL
                       AIR SEA DIR/SP/G            HT/PER HT/PER
                 (UTC) (F)     (DEG/KT/KT) (MB)    (FT/S) (FT/S)
BRANDYWINE LGT   2100   33 36  170/ 14/ 15 1021.9F
CAPE MAY NJ      2100   34 36              1021.7R
LEWES DE         2100   35 35  170/  6/  8 1021.6F
15NM E FENWICK I 2100   35 41              1022.1F   3/11
OCEAN-CITY-INLET 2100   35 38  210/ 11/ 13 1022.0F
WACHAPREAGUE VA  2100   35 35  200/  9/ 11 1022.2F
THOMAS POINT MD  2100   34 36  160/ 18/ 21 1020.7F
GOOSES REEF MD   2100   34     VRB 16/ 17  1019.8F
COVE POINT MD    2100   33     180/ 16/ 18 1020.6F
SOLOMONS ISLAND  2100      37                N/A
BISHOPS HEAD MD  2100   34 34  170/ 15/ 17 1020.8S
PINEY POINT MD   2100          170/ 10/ 11   N/A
POTOMAC MD       2100   36     180/ 12/ 14 1020.5R
CAMBRIDGE MD     2100   34 35  150/  5/ 10 1021.0R
LEWISETTA VA     2100   38 36  180/  7/  8 1020.4F
RAPPAHANNOCK LGT 2100          170/ 12/ 13 1022.5F
STINGRAY PT      2100   36     180/ 14/ 16 1022.1S
YORK RVR RNG VA  2100   39     190/ 11/ 12 1021.4F
YORKTOWN VA      2100   39 40  200/  5/  7 1021.8F
JAMESTOWN VA     2100   41     190/  6/  8   N/A
DOMINION TERM VA 2100   40     210/  7/  8 1022.3S
KIPTOPEKE VA     2100      44  180/  8/  9   N/A
CHES BAY BRIDGE  2100   40 40  180/  6/  7 1022.3R
CAPE HENRY VA    2100   40     190/  7/  9 1021.2R
CHESAPEAKE LGHT  2000   36     200/  8/  9 1023.8F
WILLOUBY STN VA  2100   40     200/ 11/ 12 1022.6F
S CRANEY ISL VA  2100          180/  6/  9 1022.3S
CAPE HENRY BUOY  2100      42                N/A     3/ 7   2/11
1ST LANDING BUOY 2100   40     190/  6/  8 1021.9F
CAPE CHARLES BUO 2100      40                N/A     3/12   3/12
OFFSHORE WE BUOY 2100      43                N/A     4/ 7   3/ 7
64NM E OF VA BCH 2100   40 49  220/  4/  8 1022.7F   4/ 7   3/ 7
DUCK PIER NC     2100   38 44  190/  5/  7 1022.4F
44100 DUCK FRF   2100      45                N/A     4/11   2/11
44056 DUCK FRF   2100      42                N/A     3/13   2/13
OREGON INLET NC  2100   38 42  210/  6/  7 1023.6F
HATTERAS NC      2100   39 44  280/  5/  6 1024.2F


USA.gov is the U.S. government's official web portal to all federal, state and local government web resources and services.